Change the Weather History Date:

Saturday, September 14, 2013

  Actual Average Record
Temperature  
Mean Temperature 66 °F -  
Max Temperature 77 °F - - ()
Min Temperature 54 °F - - ()
Growing Degree Days 16 (Base 50)    
Moisture  
Dew Point 48 °F    
Average Humidity 59    
Maximum Humidity 80    
Minimum Humidity 31    
Precipitation  
Precipitation 0.00 in - - ()
Sea Level Pressure  
Sea Level Pressure 30.01 in    
Wind  
Wind Speed 3 mph ()    
Max Wind Speed 7 mph    
Max Gust Speed -    
T = Trace of Precipitation, MM = Missing Value Source: Averaged Metar Reports

Daily Weather History Graph

Daily Weather History Graph

Search for Another Location

Airport or City:

Trip Planner

Search our weather history database for the weather conditions in past years. The results will help you decide how hot, cold, wet, or windy it might be!

Date:

Astronomy

Sep. 14, 2013 Rise Set
Actual Time 7:16 AM MDT 7:57 PM MDT
Civil Twilight 6:42 AM MDT 8:31 PM MDT
Nautical Twilight 6:02 AM MDT 9:11 PM MDT
Astronomical Twilight 5:20 AM MDT 9:53 PM MDT
Moon 5:07 PM MDT (9/14) 1:24 AM MDT (9/14)
Length of Visible Light 13h 48m
Length of Day
12h 41m
Waxing Gibbous, 73% of the Moon is Illuminated
Sep 14
Waxing Gibbous
Sep 19
Full
Sep 26
Last Quarter
Oct 4
New
Oct 11
First Quarter

Hourly Weather History & Observations

Time (MDT) Temp. Dew Point Humidity Pressure Visibility Wind Dir Wind Speed Gust Speed Precip Events Conditions
12:00 AM 62.1 °F 49.3 °F 63% 29.98 in - ENE 2.3 mph - N/A   Unknown
1:00 AM 63.1 °F 49.6 °F 61% 29.97 in - East 2.3 mph - N/A   Unknown
2:00 AM 62.1 °F 48.6 °F 61% 29.97 in - ENE 2.3 mph - N/A   Unknown
3:00 AM 57.4 °F 47.5 °F 70% 29.99 in - NNW 1.2 mph - N/A   Unknown
4:00 AM 55.9 °F 48.0 °F 75% 30.01 in - NE 2.3 mph - N/A   Unknown
5:00 AM 54.5 °F 46.8 °F 75% 30.03 in - ENE 3.5 mph - N/A   Unknown
6:00 AM 54.5 °F 46.4 °F 74% 30.04 in - NE 3.5 mph - N/A   Unknown
7:00 AM 54.5 °F 46.0 °F 73% 30.06 in - NE 2.3 mph - N/A   Unknown
8:00 AM 55.8 °F 46.9 °F 72% 30.08 in - ENE 3.5 mph - N/A   Unknown
9:00 AM 60.1 °F 48.6 °F 66% 30.09 in - North 1.2 mph - N/A   Unknown
10:00 AM 60.6 °F 49.1 °F 66% 30.09 in - SSE 3.5 mph - N/A   Unknown
11:00 AM 65.1 °F 47.1 °F 52% 30.08 in - East 4.6 mph - N/A   Unknown
12:00 PM 68.5 °F 47.7 °F 47% 30.05 in - NE 5.8 mph - N/A   Unknown
1:00 PM 71.4 °F 44.6 °F 38% 30.02 in - NE 5.8 mph - N/A   Unknown
2:00 PM 74.3 °F 43.5 °F 33% 30.01 in - East 4.6 mph - N/A   Unknown
3:00 PM 76.1 °F 45.5 °F 34% 29.98 in - ENE 5.8 mph - N/A   Unknown
4:00 PM 77.2 °F 44.2 °F 31% 29.97 in - ESE 4.6 mph - N/A   Unknown
5:00 PM 76.8 °F 48.2 °F 36% 29.96 in - East 4.6 mph - N/A   Unknown
6:00 PM 73.8 °F 49.5 °F 42% 29.97 in - East 6.9 mph - N/A   Unknown
7:00 PM 69.8 °F 52.7 °F 54% 29.98 in - NNE 6.9 mph - N/A   Unknown
8:00 PM 67.1 °F 53.6 °F 62% 29.98 in - NNE 6.9 mph - N/A   Unknown
9:00 PM 63.5 °F 53.8 °F 71% 30.01 in - ENE 4.6 mph - N/A   Unknown
10:00 PM 60.6 °F 51.4 °F 72% 30.01 in - NNE 3.5 mph - N/A   Unknown
11:00 PM 58.8 °F 52.5 °F 80% 30.02 in - NE 3.5 mph - N/A   Unknown